C/2026 AZ17 ( Bok )

Japanese version
Home page
Updated on July 11, 2026

---------------------------------------------------------------------

* Profile

Discovery Date January 13, 2026
Magnitude 22.1 mag
Discoverer Bok reflector at Kitt Peak

* Pictures

* Orbital Elements

Epoch 2026 June 9.0 TT = JDT 2461200.5                                          
T 2026 Nov. 23.22578 TT                                 Pike                    
q   2.4726630            (2000.0)            P               Q                  
z  +0.0154255      Peri.  146.91264     +0.50505994     +0.81082397             
 +/-0.0000121      Node   149.97438     -0.86279444     +0.48319904             
e   0.9618578      Incl.   36.23362     -0.02236527     -0.33027743             
From 242 observations 2026 Jan. 13-June 8, mean residual 0".4.                  

* Magnitudes Graph

        m1 = 11.5 + 5 log d + 10.0 log r

---------------------------------------------------------------------

The orbital elements are published on M.P.E.C. 2026-L52.
The magnitudes graphs are made with Comet for Windows.

---------------------------------------------------------------------

Copyright(C) Seiichi Yoshida (comet@aerith.net). All rights reserved.